Summary – Current weather conditions in Chulilla

22/1/2021, 14:20
Puesta del sol a las Salida del sol a las
Hora Temperatures Pressure Wind Intensidad lluvia
14:20 13.3 °C 1005 mb 24 km/h 0.00 mm
14:10 12.8 °C 1005 mb 0.00 mm
14:00 12.2 °C 1005 mb 13 km/h 0.00 mm
13:50 12.1 °C 1006 mb 31 km/h 0.00 mm
13:40 12.2 °C 1005 mb 0.00 mm
13:30 12.6 °C 1005 mb 0.00 mm
13:20 12.4 °C 1005 mb 14 km/h 0.00 mm
13:10 12.6 °C 1005 mb 21 km/h 0.00 mm
13:00 12.8 °C 1005 mb 0.00 mm
12:50 13.1 °C 1005 mb 11 km/h 0.00 mm
12:40 12.9 °C 1005 mb 24 km/h 0.00 mm
12:30 12.8 °C 1005 mb 21 km/h 0.00 mm
12:20 12.7 °C 1005 mb 0.00 mm
12:10 12.6 °C 1005 mb 27 km/h 0.00 mm
12:00 12.9 °C 1005 mb 40 km/h 0.00 mm
11:50 13.3 °C 1005 mb 0.00 mm
11:40 13.4 °C 1005 mb 32 km/h 0.00 mm
11:30 13.4 °C 1004 mb 24 km/h 0.00 mm
11:20 13.3 °C 1004 mb 2 km/h 0.00 mm
11:10 13.2 °C 1004 mb 10 km/h 0.00 mm
11:00 13.1 °C 1004 mb 27 km/h 0.00 mm
10:50 13.1 °C 1005 mb 2 km/h 0.00 mm
10:40 13.0 °C 1004 mb 47 km/h 0.00 mm
10:30 12.9 °C 1004 mb 13 km/h 0.00 mm
10:20 12.7 °C 1004 mb 48 km/h 0.00 mm
10:10 12.4 °C 1004 mb 0.00 mm
10:00 12.4 °C 1004 mb 3 km/h 0.00 mm
09:50 12.2 °C 1004 mb 21 km/h 0.00 mm
09:40 11.6 °C 1003 mb 32 km/h 0.00 mm
09:30 11.1 °C 1004 mb 29 km/h 0.00 mm
09:20 10.7 °C 1003 mb 1.50 mm
09:10 9.8 °C 1004 mb 19 km/h 6.60 mm
09:00 12.9 °C 1003 mb 2 km/h 0.00 mm
08:50 14.4 °C 1001 mb 0.00 mm
08:40 14.2 °C 1000 mb 2 km/h 1.80 mm
08:30 13.9 °C 1000 mb 2.30 mm
08:20 15.2 °C 1001 mb 18 km/h 87.60 mm
08:10 14.9 °C 1000 mb 2 km/h 0.00 mm
08:00 15.1 °C 1000 mb 31 km/h 0.00 mm
07:50 15.3 °C 1000 mb 5 km/h 0.00 mm
07:40 15.1 °C 1000 mb 31 km/h 0.00 mm
07:30 14.6 °C 1000 mb 29 km/h 0.00 mm
07:20 14.4 °C 1000 mb 29 km/h 0.00 mm
07:10 13.9 °C 1000 mb 8 km/h 0.00 mm
07:00 13.9 °C 1001 mb 0.00 mm
06:50 13.7 °C 1001 mb 0.00 mm
06:40 13.4 °C 1002 mb 0.00 mm
06:30 13.9 °C 1002 mb 16 km/h 0.00 mm
06:20 14.1 °C 1002 mb 0.00 mm
06:10 13.7 °C 1003 mb 6 km/h 0.00 mm
06:00 13.1 °C 1002 mb 0.00 mm
05:50 13.5 °C 1002 mb 0.00 mm
05:40 13.8 °C 1004 mb 0.00 mm
05:30 13.8 °C 1004 mb 0.00 mm
05:20 13.9 °C 1004 mb 18 km/h 0.00 mm
05:10 14.0 °C 1004 mb 0.00 mm
05:00 13.9 °C 1005 mb 16 km/h 0.00 mm
04:50 13.7 °C 1005 mb 14 km/h 0.00 mm
04:40 13.6 °C 1005 mb 0.00 mm
04:30 13.5 °C 1005 mb 0.00 mm
04:20 13.4 °C 1005 mb 0.00 mm
04:10 13.6 °C 1005 mb 0.00 mm
04:00 13.6 °C 1005 mb 0.00 mm
03:50 13.6 °C 1005 mb 0.00 mm
03:40 13.7 °C 1006 mb 0.00 mm
03:30 13.3 °C 1006 mb 19 km/h 0.00 mm
03:20 13.4 °C 1006 mb 0.00 mm
03:10 13.5 °C 1006 mb 0.00 mm
03:00 13.5 °C 1006 mb 0.00 mm
02:50 13.6 °C 1007 mb 14 km/h 0.00 mm
02:40 13.7 °C 1007 mb 21 km/h 0.00 mm
02:30 13.9 °C 1007 mb 0.00 mm
02:20 13.8 °C 1007 mb 27 km/h 0.00 mm
02:10 13.8 °C 1007 mb 5 km/h 0.00 mm
02:00 13.8 °C 1007 mb 24 km/h 0.00 mm
01:50 13.9 °C 1007 mb 0.00 mm
01:40 14.0 °C 1007 mb 0.00 mm
01:30 14.1 °C 1007 mb 2 km/h 0.00 mm
01:20 14.2 °C 1007 mb 0.00 mm
01:10 14.1 °C 1007 mb 19 km/h 0.00 mm
01:00 14.1 °C 1007 mb 16 km/h 0.00 mm
00:50 14.2 °C 1008 mb 21 km/h 0.00 mm
00:40 14.4 °C 1008 mb 13 km/h 0.00 mm
00:30 14.4 °C 1007 mb 26 km/h 0.00 mm
00:20 14.3 °C 1008 mb 2 km/h 0.00 mm
00:10 14.1 °C 1008 mb 29 km/h 0.00 mm
00:00 14.1 °C 1008 mb 18 km/h 0.00 mm
Dia anterior